Weather History for PABI - April, 2013

Change the Weather History Date:

Tuesday, April 30, 2013

  Actual Average Record
Temperature  
Mean Temperature 26 °F -  
Max Temperature 37 °F 46 °F 66 °F (2005)
Min Temperature 16 °F 27 °F 16 °F (2013)
Degree Days  
Heating Degree Days 39    
Moisture  
Dew Point 14 °F    
Average Humidity 58    
Maximum Humidity 85    
Minimum Humidity 28    
Precipitation  
Precipitation 0.00 in - - ()
Sea Level Pressure  
Sea Level Pressure 30.01 in    
Wind  
Wind Speed 4 mph (SE)    
Max Wind Speed 8 mph    
Max Gust Speed -    
Visibility 10 miles    
Events      
Averages and records for this station are not official NWS values.
T = Trace of Precipitation, MM = Missing Value Source: NWS Daily Summary

Daily Weather History Graph

Daily Weather History Graph

Search for Another Location

Airport or City:

Trip Planner

Search our weather history database for the weather conditions in past years. The results will help you decide how hot, cold, wet, or windy it might be!

Date:

Astronomy

Apr. 30, 2013 Rise Set
Actual Time 5:18 AM AKDT 10:04 PM AKDT
Civil Twilight 4:10 AM AKDT 11:13 PM AKDT
Nautical Twilight 2:12 AM AKDT 1:07 AM AKDT
Astronomical Twilight Sun does not rise Sun does not rise
Moon 2:59 AM AKDT (4/30) 9:36 AM AKDT (4/30)
Length of Visible Light 19h 02m
Length of Day
16h 46m
Waning Gibbous, 68% of the Moon is Illuminated
Apr 30
Waning Gibbous
May 2
Last Quarter
May 9
New
May 17
First Quarter
May 24
Full

Hourly Weather History & Observations

Time (AKDT) Temp. Windchill Dew Point Humidity Pressure Visibility Wind Dir Wind Speed Gust Speed Precip Events Conditions
12:53 AM 21.9 °F 14.5 °F 18.0 °F 85% 30.15 in 10.0 mi South 5.8 mph - N/A   Scattered Clouds
1:53 AM 18.0 °F 7.7 °F 12.0 °F 78% 30.15 in 10.0 mi South 8.1 mph - N/A   Overcast
2:53 AM 19.0 °F - 14.0 °F 81% 30.14 in 10.0 mi Calm Calm - N/A   Overcast
3:53 AM 19.0 °F 13.9 °F 12.9 °F 77% 30.13 in 10.0 mi South 3.5 mph - N/A   Overcast
4:53 AM 18.0 °F 11.1 °F 12.0 °F 78% 30.12 in 10.0 mi SSE 4.6 mph - N/A   Overcast
5:53 AM 17.1 °F - 12.0 °F 81% 30.11 in 10.0 mi Calm Calm - N/A   Overcast
6:53 AM 19.0 °F - 12.9 °F 77% 30.09 in 10.0 mi Calm Calm - N/A   Overcast
7:53 AM 21.0 °F - 16.0 °F 81% 30.09 in 10.0 mi Calm Calm - N/A   Overcast
8:53 AM 24.1 °F 17.0 °F 17.1 °F 75% 30.07 in 10.0 mi East 5.8 mph - N/A   Overcast
9:53 AM 26.1 °F 18.4 °F 19.0 °F 75% 30.05 in 10.0 mi ESE 6.9 mph - N/A   Overcast
10:53 AM 28.9 °F 21.9 °F 19.9 °F 69% 30.03 in 10.0 mi East 6.9 mph - N/A   Overcast
11:53 AM 30.0 °F 24.1 °F 21.0 °F 69% 30.03 in 10.0 mi ESE 5.8 mph - N/A   Overcast
12:53 PM 33.1 °F 27.7 °F 18.0 °F 54% 30.01 in 10.0 mi East 5.8 mph - N/A   Overcast
1:53 PM 35.1 °F - 15.1 °F 44% 30.00 in 10.0 mi Calm Calm - N/A   Overcast
2:53 PM 36.0 °F - 12.0 °F 37% 29.98 in 10.0 mi Calm Calm - N/A   Overcast
3:53 PM 36.0 °F 33.3 °F 15.1 °F 43% 29.97 in 10.0 mi East 3.5 mph - N/A   Overcast
4:53 PM 35.1 °F 32.2 °F 10.9 °F 37% 29.96 in 10.0 mi Variable 3.5 mph - N/A   Overcast
5:53 PM 35.1 °F - 12.0 °F 39% 29.95 in 10.0 mi Calm Calm - N/A   Overcast
6:53 PM 35.1 °F 31.0 °F 12.9 °F 40% 29.94 in 10.0 mi SSW 4.6 mph - N/A   Overcast
7:53 PM 35.1 °F - 12.0 °F 39% 29.92 in 10.0 mi Calm Calm - N/A   Overcast
8:53 PM 33.1 °F 30.0 °F 12.9 °F 43% 29.91 in 10.0 mi East 3.5 mph - N/A   Mostly Cloudy
9:28 PM 33.8 °F 30.8 °F 12.2 °F 41% 29.83 in 10.0 mi East 3.5 mph - N/A   Mostly Cloudy
9:53 PM 33.1 °F 28.7 °F 12.0 °F 42% 29.90 in 10.0 mi SE 4.6 mph - N/A   Scattered Clouds
10:53 PM 30.0 °F - 14.0 °F 51% 29.89 in 10.0 mi Calm Calm - N/A   Partly Cloudy
11:53 PM 28.9 °F - 14.0 °F 54% 29.88 in 10.0 mi Calm Calm - N/A   Overcast